This is the latest recevied weather packets stored in our database for station/object KE5QKR. If no packets are shown the sender has not sent any weather packets the latest 10 day(s).
| Time | Temp. | Humidity | Pressure | Rain* | Wind** | Luminosity | Snow |
|---|---|---|---|---|---|---|---|
| 1777776933 | 11.67° C | 86% | 1017.7 hPa | 0 mm | - | 0 W/m² | - |
| 1777776631 | 12.22° C | 86% | 1017.4 hPa | 0 mm | - | 0 W/m² | - |
| 1777776327 | 12.78° C | 86% | 1017.3 hPa | 0 mm | - | 0 W/m² | - |
| 1777776024 | 12.78° C | 84% | 1017.3 hPa | 0 mm | - | 0 W/m² | - |
| 1777775721 | 13.33° C | 81% | 1017 hPa | 0 mm | - | 0 W/m² | - |
| 1777775419 | 14.44° C | 77% | 1016.9 hPa | 0 mm | - | 0 W/m² | - |
| 1777775114 | 15° C | 70% | 1016.6 hPa | 0 mm | - | 0 W/m² | - |
| 1777774809 | 15° C | 65% | 1016.7 hPa | 0 mm | - | 0 W/m² | - |
| 1777774506 | 15.56° C | 64% | 1016.8 hPa | 0 mm | - | 0 W/m² | - |
| 1777774203 | 15.56° C | 62% | 1016.5 hPa | 0 mm | - | 0 W/m² | - |
| 1777773900 | 16.11° C | 62% | 1016.7 hPa | 0 mm | - | 0 W/m² | - |
| 1777773597 | 16.11° C | 61% | 1016.6 hPa | 0 mm | - | 0 W/m² | - |
| 1777773294 | 16.11° C | 61% | 1016.4 hPa | 0 mm | - | 0 W/m² | - |
| 1777772990 | 16.11° C | 60% | 1016.4 hPa | 0 mm | - | 0 W/m² | - |
| 1777772687 | 16.67° C | 59% | 1016.4 hPa | 0 mm | - | 0 W/m² | - |
| 1777772385 | 16.67° C | 58% | 1016.1 hPa | 0 mm | - | 0 W/m² | - |
| 1777772082 | 16.67° C | 57% | 1016.1 hPa | 0 mm | - | 0 W/m² | - |
| 1777771779 | 16.67° C | 58% | 1016.2 hPa | 0 mm | - | 0 W/m² | - |
| 1777771477 | 17.22° C | 57% | 1016 hPa | 0 mm | - | 0 W/m² | - |
| 1777771173 | 17.22° C | 57% | 1016 hPa | 0 mm | - | 0 W/m² | - |
| 1777770870 | 17.22° C | 56% | 1015.9 hPa | 0 mm | - | 0 W/m² | - |
| 1777770567 | 17.22° C | 56% | 1015.8 hPa | 0 mm | - | 0 W/m² | - |
| 1777770264 | 17.78° C | 55% | 1015.8 hPa | 0 mm | - | 0 W/m² | - |
| 1777769961 | 17.78° C | 55% | 1015.6 hPa | 0 mm | - | 0 W/m² | - |
| 1777769658 | 17.78° C | 54% | 1015.4 hPa | 0 mm | - | 0 W/m² | - |
* Rain latest hour (hover to see other rain measurements)
** Current wind speed in m/s (hover to see current wind gust speed)